STARLINK-4666

operational
NORAD ID: 53789 Int'l Des: 2022-111 Owner: SPXS Country: US Constellation: starlink
LEOCIRCULAR

About STARLINK-4666

Description loading...

Live Position

Loading 3D Globe...

Upcoming Passes

Altitude History

Altitude vs Time

uPlot chart will show altitude changes over time

Two-Line Element Set

1 53789U 22111S 25251.35435792 .00086893 00000-0 54046-2 0 9997
2 53789 53.2184 12.3771 0001266 84.3078 275.8059 15.08884026166161
Epoch: Sep 8, 2025 • Age: 18 hours

Current Status

Altitude 541.0 km
Velocity 7.59 km/s
Sub-Earth Point -4.76°S, 161.93°E
Launch Date Sep 11, 2022
Age 2.9 years
Type internet

Technical Details

Classification Payload
Mass 305.00 kg
Dry Mass 290.00 kg
Total Mass 305.00 kg
Length 0.20 m
Diameter 2.80 m
Span 9.00 m
Shape Box + pan
Manufacturer SPXS
Bus Type Starlink
Phase Status In Orbit
Owner/State SPXS/US

Large Constellations

Loading constellations...